CZ-3B DEB, 42471

Orbit data source: Space-Track

CZ-3B DEB, 42471 is space debris in HEO originally from a launch on Mon, 19 Dec 2011 UTC launched from the Xichang Space Center, China (XSC). Debris objects in space refer to the collection of defunct objects orbiting the Earth. Examples of debris include non-operational satellites, rocket bodies, and fragments generated from explosions, collisions, or faulty payload assembly.

Loading next visibility...
Identifier
42471, 2011-077AL
Orbit
HEO
Country
Flag of CNCN / PRC
Related business
Manufacturer
CALT
Mission
Spacecraft
Bus & Motor
Unknown
Mass
Unknown
Launch date (UTC)
Icon of a cake. It is the launch day of the satellite!2011-12-19 (14 years ago)
Launch vehicle
Unknown
Launch site
Xichang Space Center, China (XSC)
Object type
Payload
Rocket body
Debris
Shape & HBR
Unknown shape, 0.2 m
Radar Cross Section
Medium (>0.1 m² and <1 m²)

Expand to show TLE details & history
Last TLE update: 2 days ago

TLE from 2 days ago
0 CZ-3B DEB
1 42471U 11077AL  25351.20702106 -.00000018  00000-0  28059-2 0  9994
2 42471  26.5096 359.0049 7457026  41.1671 355.9454  1.89247134 31243
Epoch: 2025-12-17T04:58Z
TLE epoch observation values (Epoch: 2025-12-17T04:58:06.619Z)
Latitude
0.00012°
Longitude
-161.60976°
Altitude
1,463.136 km
Speed
9.339 km/s
True Right ascension
23h 55m 59s
True Declination
0° 00' 00"
Sunlit
Object was in daylight at epoch
Visualization orbit readout
Latitude
Unknown
Longitude
Unknown
Altitude
Unknown
Speed
Unknown
Apparent Right ascension
Unknown
Apparent Declination
Unknown
Sunlit
N/A
Visualization observer readout
Local Sidereal Time
15:31:55
Azimuth
Unknown
Elevation
Unknown
Doppler factor
Unknown
Orbital elements
Apogee altitude
41,825.408 km
Perigee altitude
643.698 km
Semi-major axis
27,612.69 km
Eccentricity
0.7457
Inclination
26.5096°
RAAN
359.0049°
Arg. of periapsis
41.1671°
True anomaly
320.98132°
Mean anomaly
355.9454°
Eccentric anomaly
344.5977°
Mean motion
0.47302 °/min
Orbital period
761.07 mins
BSTAR
0.0028059
Loading maneuver chart data...
Computing Atmospheric mass density...
Loading historical data...
Loading historical data...
Loading historical data...
Loading historical data...
Loading historical data...
Loading historical data...
Loading historical data...

Documentation

Showing up to 5 results
|